Location: Trenton
(45.6167°N, 62.6167°W)
Time: 09:42:19
(UTC+00:00)

Nauka - Pass Details

Date: 30 September 2021
Orbit: 417 x 423 km, 51.6° (Epoch: 16 October)

Event Time Altitude Azimuth Distance (km) Brightness Sun altitude
Rises 23:40:50 0° 298° (WNW) 2,366 ? -19.7°
Reaches altitude 10° 23:42:56 10° 300° (WNW) 1,501 ? -20.0°
Enters shadow 23:46:08 75° 344° (NNW) 438 ? -20.6°
